This is the latest recevied weather packets stored in our database for station/object WI0K. If no packets are shown the sender has not sent any weather packets the latest 10 day(s).
| Time | Temp. | Humidity | Pressure | Rain* | Wind** | Luminosity | Snow |
|---|---|---|---|---|---|---|---|
| 1788525632 | 15.56° C | 56% | 1017.9 hPa | 0 mm | - | 11 W/m² | - |
| 1788525331 | 16.11° C | 56% | 1017.8 hPa | 0 mm | - | 7 W/m² | - |
| 1788525030 | 16.11° C | 55% | 1017.7 hPa | 0 mm | - | 4 W/m² | - |
| 1788524729 | 16.11° C | 54% | 1017.7 hPa | 0 mm | - | 2 W/m² | - |
| 1788524429 | 15.56° C | 55% | 1017.6 hPa | 0 mm | - | 1 W/m² | - |
| 1788524128 | 15.56° C | 58% | 830.7 hPa | 0 mm | - | 1 W/m² | - |
| 1788523827 | 15.56° C | 62% | 1017.6 hPa | 0 mm | - | 0 W/m² | - |
| 1788523525 | 15.56° C | 56% | 1017.5 hPa | 0 mm | - | 0 W/m² | - |
| 1788523225 | 15.56° C | 58% | 1017.5 hPa | 0 mm | - | 0 W/m² | - |
| 1788522924 | 15.56° C | 63% | 1017.6 hPa | 0 mm | - | 0 W/m² | - |
| 1788522623 | 15.56° C | 58% | 1017.5 hPa | 0 mm | - | 0 W/m² | - |
| 1788522322 | 16.11° C | 58% | 1017.5 hPa | 0 mm | - | 0 W/m² | - |
| 1788522022 | 15.56° C | 56% | 1017.5 hPa | 0 mm | - | 0 W/m² | - |
| 1788521721 | 15.56° C | 61% | 1017.5 hPa | 0 mm | - | 0 W/m² | - |
| 1788521420 | 15.56° C | 59% | 1017.4 hPa | 0 mm | - | 0 W/m² | - |
| 1788521119 | 15.56° C | 58% | 1017.2 hPa | 0 mm | - | 0 W/m² | - |
| 1788520819 | 15.56° C | 62% | 1017.4 hPa | 0 mm | - | 0 W/m² | - |
| 1788520517 | 15.56° C | 61% | 1017.2 hPa | 0 mm | - | 0 W/m² | - |
| 1788520217 | 15.56° C | 60% | 1017.1 hPa | 0 mm | - | 0 W/m² | - |
| 1788519916 | 16.11° C | 60% | 1017.1 hPa | 0 mm | - | 0 W/m² | - |
| 1788519615 | 16.11° C | 60% | 1017.1 hPa | 0 mm | - | 0 W/m² | - |
| 1788519315 | 16.67° C | 55% | 1016.9 hPa | 0 mm | - | 0 W/m² | - |
| 1788519014 | 16.11° C | 57% | 1017 hPa | 0 mm | - | 0 W/m² | - |
| 1788518713 | 16.11° C | 58% | 1017 hPa | 0 mm | - | 0 W/m² | - |
| 1788518413 | 16.11° C | 58% | 1017 hPa | 0 mm | - | 0 W/m² | - |
* Rain latest hour (hover to see other rain measurements)
** Current wind speed in m/s (hover to see current wind gust speed)